Regional Weather Roundup
Issued by NWS Charleston, SC

Current Version | Previous Version | Graphics & Text | Print | Product List | Glossary On
Versions: 1 2 3 4 5 6 7 8 9 10 11 12 13 14 15 16 17 18 19 20 21 22 23 24 25 26 27 28 29 30 31 32 33 34 35 36 37 38 39 40 41 42 43 44 45 46 47 48 49 50
000 ASUS42 KCHS 301710 RWRCHS REGIONAL WEATHER ROUNDUP NATIONAL WEATHER SERVICE CHARLESTON SC 100 PM EDT WED JUL 30 2014 NOTE: "FAIR" INDICATES FEW OR NO CLOUDS BELOW 12,000 FEET WITH NO SIGNIFICANT WEATHER AND/OR OBSTRUCTIONS TO VISIBILITY. NOT ALL STATIONS ARE QUALITY CONTROLLED BY THE NATIONAL WEATHER SERVICE. USE DATA WITH CAUTION...ESPECIALLY DEWPOINT OBSERVATIONS. SCZ027-030-031-034>040-042>050-301800- ...SOUTH CAROLINA... CITY SKY/WX TMP DP RH WIND PRES REMARKS N CHARLESTON PTSUNNY 87 69 54 E13 30.01F HX 91 WATERFRONT PRK N/A 84 N/A N/A E13 N/A FORT JOHNSON NOT AVBL MOUNT PLEASANT FAIR 82 72 69 CALM 30.02S JOHNS ISLAND PTSUNNY 84 68 58 E12 30.02S PINOPOLIS N/A 88 70 55 E3 29.95F HX 92 MONCKS CORNER N/A 86 73 66 SE7 30.02S HX 93 SUMMERVILLE PTSUNNY 84 70 61 CALM 30.02F BEAUFORT MCAS PTSUNNY 85 70 60 SE9 30.00F BEAUFORT ARPT CLOUDY 84 72 65 E9 30.00S HILTON HEAD IS MOSUNNY 84 73 70 NE8 30.01S HX 91 GEORGETOWN NOT AVBL WALTERBORO NOT AVBL ORANGEBURG FAIR 87 66 49 E7 30.01F BARNWELL FAIR 88 68 51 E3 30.01F HX 91 AIKEN FAIR 82 64 54 SE6 30.06S MANNING CLOUDY 86 70 58 NE6 30.02S HX 90 KINGSTREE NOT AVBL COLUMBIA FAIR 88 61 40 NE6 30.02F SUMTER FAIR 85 67 55 NE6 30.02F FLORENCE PTSUNNY 86 68 54 E7 30.03F MYRTLE BEACH MOSUNNY 84 66 54 E12 30.04S N MYRTLE BEACH PTSUNNY 84 66 54 E9 30.03S $$ GAZ063-065-086>088-099>101-113>116-118-119-134-136>141-150-301800- ...GEORGIA... CITY SKY/WX TMP DP RH WIND PRES REMARKS SAVANNAH ARPT CLOUDY 86 67 52 E9 29.99F HUNTER AAF PTSUNNY 85 78 79 E8 29.97F HX 98 FORT STEWART CLOUDY 81 69 67 W3 29.99F STATESBORO NOT AVBL SYLVANIA FAIR 84 75 73 CALM 30.01F HX 92 CLAXTON CLOUDY 86 68 54 CALM 30.00F THOMSON FAIR 85 69 58 CALM 30.08S AUGUSTA-BUSH FAIR 85 66 53 SE7 30.01F AUGUSTA-DANIEL FAIR 86 63 45 VRB6 30.03F SWAINSBORO PTSUNNY 88 63 42 CALM 30.02S VIDALIA N/A 86 59 39 CALM 30.01S ALMA FAIR 88 57 34 VRB5 29.99F WAYCROSS PTSUNNY 91 61 36 E3 29.98F HX 91 JESUP FAIR 90 68 48 NE8 29.99F HX 93 BRUNSWICK CLOUDY 88 70 55 NE3 29.98S HX 92 SAINT SIMONS FAIR 88 69 53 SE9 29.97F HX 92 $$ SCZ027-028-034-036>038-045-046-048>050-GAZ119-141-301800- ...LAKE AND SUPPLEMENTAL COASTAL OBSERVATIONS... STATION/POSITION TIME TEMP WIND PRES WAVE SWELL AIR SEA DIR/SP/G HT/PER HT/PER/DIR (UTC) (F) (DEG/KT/KT) (MB) (FT/S) (FT/S/D) UPR LAKE MARION NOT AVBL WINYAH BAY 1600 82 80/ 9 1017.0S LAKE MURRAY 1600 82 CALM / 4 1016.6F ACE BASIN NERRS 1600 85 90/ 3 1016.0S FORT PULASKI 1700 83 80/ 13/ 15 1015.8S SAPELO ISLAND 1600 89 110/ 7 1016.0S $$ ANZ835-935-AMZ111-154-330-350-352-354-374-450-454-472-301800- ...C-MAN AND BUOY OBSERVATIONS... STATION/POSITION TIME TEMP WIND PRES WAVE SWELL AIR SEA DIR/SP/G HT/PER HT/PER/DIR (UTC) (F) (DEG/KT/KT) (MB) (FT/S) (FT/S/D) FOLLY BEACH CMAN 1600 82 80/ 11/ 13 1016.7F BUOY 41004 1700 82 84 70/ 12/ 14 1015.9R 2/10 2/10 BUOY 41008 1700 83 85 90/ 10/ 12 1015.0F 2/ 9 2/110/ 9 5E ST. MARYS GA 1700 85 N/A 2/ 9 FRYING PAN BUOY NOT AVBL BUOY 41025 1700 VRB 14/ 16 1017.2F 4/ 7 3/ 90/ 7 CAPE LOOKOUT NC 1600 78 50/ 13/ 15 1017.7F BUOY 41002 1603 78 81 180/ 14/ 16 1015.6 4/ 7 3/210/ 7 BUOY 41010 1700 84 85 240/ 6/ 8 1015.4S 2/ 4 2/270/ 4 BUOY 41012 NOT AVBL ST AUGUSTINE FL 1700 89 290/ 5/ 10 1015.4F CAPERS NEARSHORE 1600 81 90/ 12/ 14 N/A FRIPP NEARSHORE NOT AVBL $$

USA.gov is the U.S. government's official web portal to all federal, state and local government web resources and services.